Regional Weather Roundup
Issued by NWS

Home | Current Version | Previous Version | Graphics & Text | Print | Product List | Glossary Off
Versions: 1 2 3 4 5 6 7 8 9 10 11 12 13 14 15 16 17 18 19 20 21 22 23 24 25 26 27 28 29 30 31 32 33 34 35 36 37 38 39 40 41 42 43 44 45 46 47 48 49 50

000
ASUS45 KSLC 191710
RWRUT

UTAH REGIONAL WEATHER ROUNDUP
NATIONAL WEATHER SERVICE SALT LAKE CITY UT
1100 AM MDT FRI SEP 19 2014

UTZ001>011-023>025-191800-

NORTHERN UTAH

CITY           SKY/WX    TMP DP  RH WIND       PRES   REMARKS
HILL AFB       MOSUNNY   72  54  53 VRB5      30.10R
LOGAN          SUNNY     66  58  75 N3        30.09S
OGDEN          SUNNY     72  55  55 VRB5      30.07R
PROVO AIRPORT  MOSUNNY   72  55  56 NW5       30.09R
SALT LAKE CITY MOSUNNY   74  55  51 NW6       30.06R
VERNAL         SUNNY     75  47  36 N3        30.09F
WENDOVER       SUNNY     75  39  27 N14       30.08R
HEBER CITY     SUNNY     66  50  55 CALM      30.13S
WEST JORDAN    SUNNY     72  55  56 CALM      30.09S

$$

UTZ012>022-026-027-191800-

SOUTHERN UTAH

CITY           SKY/WX    TMP DP  RH WIND       PRES   REMARKS
BRYCE CANYON   CLOUDY    66  45  46 N7        30.25S
CEDAR CITY     MOSUNNY   75  48  38 N5        30.11S
MILFORD        SUNNY     77  48  35 CALM      30.08R
MOAB/CYNLANDS  SUNNY     81  41  24 SE7       30.00R
PRICE          PTSUNNY   80  47  31 VRB5      30.10S
ST GEORGE      SUNNY     82  54  36 CALM      29.96R
KANAB            N/A     75  48  38 SW3       30.11R

$$

REGIONAL REPORTS     COLORADO/ARIZONA

CITY           SKY/WX    TMP DP  RH WIND       PRES   REMARKS
CRAIG, CO      SUNNY     69  45  41 NW5       30.15F
GRAND JUNCTION SUNNY     76  43  30 S8        30.04F
RIFLE          SUNNY     70  42  36 VRB3      30.11F
MONTROSE       MOSUNNY   74  47  38 VRB3      30.12S
CORTEZ         SUNNY     74  48  39 CALM      30.13S
PAGE, AZ       MOSUNNY   83  48  29 VRB6      30.01S
GRAND CANYON   MOSUNNY   70  54  56 VRB6      30.20R
KINGMAN        SUNNY     85  41  21 SW6       29.98R
FLAGSTAFF      PTSUNNY   67  54  63 W3        30.22R

$$

REGIONAL REPORTS    NEVADA/IDAHO/WYOMING

CITY           SKY/WX    TMP DP  RH WIND       PRES   REMARKS
LAS VEGAS, NV  MOSUNNY   84  45  25 VRB3      29.86R
ELY            SUNNY     67  44  43 VRB6      30.17S
ELKO           SUNNY     64  45  49 CALM      30.12S
POCATELLO, ID  SUNNY     66  47  50 SW21      30.13R
BURLEY         LGT RAIN  67  46  47 W12G21    30.12R
EVANSTON, WY   SUNNY     65  50  58 N5        30.22R
ROCK SPRINGS   MOSUNNY   66  45  46 W12       30.18S

$$



USA.gov is the U.S. government's official web portal to all federal, state and local government web resources and services.